SB KEPS @ AMSAT $ORB12040.N 2Line Orbital Elements 12040.AMSAT
HR AMSAT ORBITAL ELEMENTS FOR AMATEUR SATELLITES IN NASA FORMAT FROM WA5QGD FORT WORTH,TX February 9, 2012 Send SUBSCRIBE KEPS/UNSUBSCRIBE KEPS to majordomo@amsat.org only BID: ORB12040.N
DECODE 2-LINE ELSETS WITH THE FOLLOWING KEY: 1 AAAAAU 00 0 0 BBBBB.BBBBBBBB .CCCCCCCC 00000-0 00000-0 0 DDDZ 2 AAAAA EEE.EEEE FFF.FFFF GGGGGGG HHH.HHHH III.IIII JJ.JJJJJJJJKKKKKZ KEY: A-CATALOGNUM B-EPOCHTIME C-DECAY D-ELSETNUM E-INCLINATION F-RAAN G-ECCENTRICITY H-ARGPERIGEE I-MNANOM J-MNMOTION K-ORBITNUM Z-CHECKSUM
TO ALL RADIO AMATEURS BT
AO-07 1 07530U 74089B 12040.81794491 -.00000027 00000-0 10000-3 0 3025 2 07530 101.3983 043.0063 0011801 173.5092 186.6133 12.53587514703960 FO-29 1 24278U 96046B 12039.92039242 -.00000099 00000-0 -63546-4 0 07866 2 24278 098.5759 157.5496 0350787 004.1394 356.2518 13.52976005764472 SO-33 1 25509U 98061B 12039.93216087 .00000354 00000-0 57911-4 0 01649 2 25509 031.4327 345.0931 0352525 152.4474 209.5327 14.28666333694152 RS-22 1 27939U 03042A 12040.70680146 .00000375 00000-0 80180-4 0 692 2 27939 097.8218 248.0366 0012801 316.2565 043.7621 14.63893876447087 VO-52 1 28650U 05017B 12039.55945291 .00000790 00000-0 10360-3 0 00214 2 28650 097.6138 076.7826 0027767 106.0792 254.3466 14.82662881365760 HO-68 1 36122U 09072B 12040.68683985 -.00000044 00000-0 00000 0 0 1835 2 36122 100.3808 102.5400 0007671 044.8635 315.3093 13.16292850103486 UO-11 1 14781U 84021B 12040.90029171 .00000364 00000-0 54728-4 0 7847 2 14781 097.9712 101.4498 0010035 088.8878 271.3480 14.80305337500959 AO-16 1 20439U 90005D 12040.87463829 .00000077 00000-0 44329-4 0 3934 2 20439 098.4149 347.9374 0010811 174.9047 185.2245 14.32015398151634 LO-19 1 20442U 90005G 12040.84736496 .00000104 00000-0 54206-4 0 3169 2 20442 098.3808 351.3750 0011961 167.4294 192.7209 14.32236172151812 AO-27 1 22825U 93061C 12039.89125761 .00000218 00000-0 10248-3 0 273 2 22825 098.5604 344.8110 0007760 303.8915 056.1521 14.29428724958008 IO-26 1 22826U 93061D 12040.89652795 .00000077 00000-0 46989-4 0 7764 2 22826 098.5553 346.2049 0008276 294.6792 065.3526 14.29698654958279 GO-32 1 25397U 98043D 12040.60619314 -.00000035 00000-0 25649-5 0 6994 2 25397 098.3494 025.7354 0000542 340.0999 020.0139 14.23256434705737 NO-44 1 26931U 01043C 12040.60991155 -.00000034 00000-0 19009-4 0 9656 2 26931 067.0512 091.7157 0006107 278.6711 081.3695 14.29758147540863 SO-50 1 27607U 02058C 12040.79289723 .00000494 00000-0 95615-4 0 6849 2 27607 064.5605 325.4226 0085188 273.5273 085.6081 14.72207806491068 CO-55 1 27844U 03031E 12040.55879265 .00000189 00000-0 10722-3 0 3061 2 27844 098.7046 050.8030 0008999 232.9144 127.1219 14.20958826446627 CO-57 1 27848U 03031J 12039.55435941 .00000166 00000-0 97300-4 0 02558 2 27848 098.7136 049.0925 0008666 239.9856 120.0470 14.20718783446427 AO-51 1 28375U 04025K 12039.43496945 .00000163 00000-0 61397-4 0 01908 2 28375 098.1285 010.8706 0084688 073.7964 287.2525 14.40892449400080 CP3 1 31129U 07012N 12040.51190116 .00000221 00000-0 60427-4 0 895 2 31129 097.8862 055.8598 0101590 162.8242 197.6397 14.52880750255294 CO-65 1 32785U 08021C 12039.81787818 .00001190 00000-0 15383-3 0 02255 2 32785 097.8192 103.8559 0015631 122.0726 238.1984 14.82671605204595 PRISM 1 33493U 09002B 12040.77332458 .00001982 00000-0 24910-3 0 4106 2 33493 098.1493 178.4954 0018977 356.6472 003.4616 14.83171220164719 SOHLA-1 1 33496U 09002E 12039.90428514 .00000239 00000-0 48223-4 0 06561 2 33496 098.0927 152.6049 0007652 091.4916 268.7167 14.69861789163252 SO-67 1 35870U 09049F 12040.75858821 .00003161 00000-0 13838-3 0 6675 2 35870 097.2508 081.0086 0000541 290.5717 175.2118 15.22739948133068 TISAT-1 1 36799U 10035E 12040.83159383 .00001328 00000-0 17622-3 0 6835 2 36799 098.0747 116.2143 0014086 225.6043 134.4009 14.81498260 85489 STUDSAT 1 36801U 10035G 12039.92167228 .00003404 00000-0 42461-3 0 03714 2 36801 098.0818 115.5298 0012383 215.3955 144.6435 14.83052922085356 FO-69 1 37227U 0 12040.49018146 .00000391 00000-0 63366-4 0 00982 2 37227 071.9678 235.9144 0017989 204.9902 155.0391 14.76920042017095 FO-70 1 37380U 0 12040.54208318 .00000344 00000-0 56942-4 0 01026 2 37380 071.9713 236.1992 0018541 201.6793 158.3586 14.76677572016993 NOAA-10 1 16969U 86073A 12039.91351093 -.00000050 00000-0 -24202-5 0 08105 2 16969 098.5951 071.1816 0011472 252.4542 107.5378 14.27525570321424 NOAA-11 1 19531U 88089A 12039.88150175 -.00000131 00000-0 -45401-4 0 08097 2 19531 098.7386 127.7395 0010479 231.4171 128.6078 14.14950922206227 NOAA-12 1 21263U 91032A 12039.96588726 .00000033 00000-0 32829-4 0 03140 2 21263 098.7381 062.1783 0013100 214.1128 145.9212 14.25476432078145 MET-3/5 1 21655U 91056A 12039.92726928 .00000051 00000-0 10000-3 0 03332 2 21655 082.5519 243.4981 0012490 287.7876 072.1899 13.17033694984883 MET-2/21 1 22782U 93055A 12040.36909801 .00000004 00000-0 -99116-5 0 3334 2 22782 082.5507 134.7225 0023321 150.6479 209.5998 13.83677117931354 OKEAN-4 1 23317U 94066A 12039.94895332 .00000774 00000-0 90625-4 0 08385 2 23317 082.5418 151.9982 0023079 060.2460 300.1047 14.83574154935644 NOAA-14 1 23455U 94089A 12039.96909293 .00000034 00000-0 40965-4 0 08018 2 23455 098.8337 125.0677 0009080 332.4367 027.6323 14.13875330882536 NOAA-15 1 25338U 98030A 12039.58476756 -.00000011 00000-0 13864-4 0 01344 2 25338 098.6789 027.7903 0011394 122.6752 237.5527 14.25027177714392 RESURS 1 25394U 98043A 12040.91255318 .00000032 00000-0 31688-4 0 107 2 25394 098.3106 035.9623 0000498 272.6512 087.4616 14.24272763706144 FENGYUN1 1 25730U 99025A 12039.93893644 .00001241 00000-0 73703-3 0 05518 2 25730 098.8366 001.2522 0021276 014.0020 346.1734 14.09219036656400 OKEAN-0 1 25860U 99039A 12040.90552462 .00000370 00000-0 63623-4 0 5429 2 25860 097.9178 006.3086 0000859 034.1073 326.0187 14.74079501675673 NOAA-16 1 26536U 00055A 12039.57038148 .00000145 00000-0 10318-3 0 06187 2 26536 099.1131 079.5888 0011280 089.3620 270.8839 14.12704184586731 NOAA-17 1 27453U 02032A 12039.70282574 .00000145 00000-0 80358-4 0 05914 2 27453 098.3527 073.1974 0011921 171.8439 188.2923 14.24391387500320 NOAA-18 1 28654U 05018A 12039.78202172 .00000450 00000-0 27255-3 0 00683 2 28654 099.0300 356.9074 0014585 156.2532 203.9314 14.11603612346302 NOAA-19 1 33591U 09005A 12039.76092142 .00000134 00000-0 98270-4 0 02565 2 33591 098.8528 341.2349 0014608 029.9831 330.2198 14.11289824154758 HUBBLE 1 20580U 90037B 12039.98254251 .00001145 00000-0 72367-4 0 9401 2 20580 028.4702 268.8502 0003398 124.3941 235.6882 15.02169671995283 ISS 1 25544U 98067A 12040.76880787 .00010337 00000-0 13657-3 0 9784 2 25544 051.6420 046.1921 0020281 025.8807 332.5641 15.58787466757983 CO-58 1 28895U 05043F 12040.63079737 .00000324 00000-0 75809-4 0 941 2 28895 097.9334 272.4216 0017499 192.1318 167.9471 14.60475585334895 FALCON 1 30776U 07006E 12039.93980681 .00003351 00000-0 22448-3 0 02791 2 30776 035.4343 345.6840 0003238 320.1638 039.8842 15.06574739270747 MAST 1 31126U 07012K 12040.54424121 .00000338 00000-0 85631-4 0 3796 2 31126 097.8805 059.1508 0094506 151.0513 209.5965 14.54028005255579 CAPE1 1 31130U 07012P 12040.67694457 .00000464 00000-0 11588-3 0 3919 2 31130 097.8887 055.7501 0102111 162.7559 197.7154 14.52762755255113 COMPASS 1 32787U 08021E 12039.78988501 .00001063 00000-0 13545-3 0 02195 2 32787 097.8176 103.9363 0016463 122.1492 238.1328 14.83486707204622 AAUSAT2 1 32788U 08021F 12040.59494043 .00001354 00000-0 16956-3 0 2103 2 32788 097.8215 105.0410 0016350 120.2706 240.0130 14.83767654204766 DO-64 1 32789U 08021G 12040.68851948 .00002932 00000-0 34998-3 0 2250 2 32789 097.8303 106.7096 0015988 117.7025 242.5801 14.84909300204808 CO-66 1 32791U 08021J 12040.67728373 .00001394 00000-0 17756-3 0 2127 2 32791 097.8183 104.6394 0016755 118.2785 242.0142 14.83000392204699 RS-30 1 32953U 08025A 12040.91102933 .00000010 00000-0 00000 0 0 5077 2 32953 082.5019 014.8995 0017518 226.3727 133.5904 12.43020780168621 TACSAT-3 1 35001U 09028A 12039.71592599 .00083376 00000-0 60018-3 0 08703 2 35001 040.4474 158.7091 0005624 058.2516 301.8857 15.72506809153968 PHARMSAT 1 35002U 09028B 12039.75434883 .00042085 00000-0 42544-3 0 7894 2 35002 040.4659 162.2210 0005556 202.3045 157.7539 15.64463591153933 METEOR-M 1 35865U 09049A 12040.72359953 -.00000020 00000-0 10702-4 0 1369 2 35865 098.6732 097.3551 0003290 069.1287 291.0235 14.21855089124340 RS-38 1 35869U 09049E 12040.83354548 .00000004 00000-0 21287-4 0 1361 2 35869 098.6701 097.4781 0005400 067.6605 292.5144 14.22053343124370 JUGNU 1 37839U 11058B 12038.43773030 .00000620 00000-0 19019-3 0 00831 2 37839 019.9611 070.3053 0018603 223.5355 136.3480 14.12022914016749 SRMSAT 1 37841U 11058D 12039.44684889 .00000264 00000-0 00000-0 0 00841 2 37841 019.9735 066.5213 0012319 206.7344 153.2461 14.10113459016866 RAX-2 1 37853U 11061D 12039.94403546 .00005956 00000-0 48432-3 0 01097 2 37853 101.7123 021.4113 0251381 358.9570 001.1065 14.78763399015299 AUBIESAT 1 37854U 11061E 12039.86078466 .00007091 00000-0 56715-3 0 00991 2 37854 101.7140 021.3802 0252366 358.7387 001.3155 14.79048434015267 HRBE 1 37855U 11061F 12040.87886036 .00006322 00000-0 50672-3 0 942 2 37855 101.7178 022.8554 0252957 355.9272 003.9864 14.78975612 15415 RS-39 1 38051U 11062C 12040.77677083 .00007271 00000-0 32615-3 0 481 2 38051 051.6502 050.6986 0011282 303.9512 045.7028 15.22167607 2396 /EX